Weather History for KMTO - August, 2014

Change the Weather History Date:

Tuesday, August 26, 2014

  Actual Average Record
Temperature  
Mean Temperature 79 °F 73 °F  
Max Temperature 90 °F 84 °F 97 °F (1983)
Min Temperature 67 °F 62 °F 52 °F (1963)
Degree Days  
Heating Degree Days 0 0  
Month to date heating degree days 1 0  
Since 1 June heating degree days 8 18  
Since 1 July heating degree days 5 1  
Cooling Degree Days 14 8  
Month to date cooling degree days 214 242  
Year to date cooling degree days 772 883  
Since 1 June cooling degree days 642 795  
Growing Degree Days 29 (Base 50)    
Moisture  
Dew Point 70 °F    
Average Humidity 79    
Maximum Humidity 93    
Minimum Humidity 64    
Precipitation  
Precipitation 0.18 in 0.11 in 4.86 in (1992)
Month to date precipitation 2.64 2.55  
Year to date precipitation 21.35 25.39  
Sea Level Pressure  
Sea Level Pressure 30.07 in    
Wind  
Wind Speed 5 mph (SSW)    
Max Wind Speed 25 mph    
Max Gust Speed 36 mph    
Visibility 9 miles    
Events Rain , Thunderstorm    
T = Trace of Precipitation, MM = Missing Value Source: NWS Daily Summary

Daily Weather History Graph

Daily Weather History Graph

Search for Another Location

Airport or City:

Trip Planner

Search our weather history database for the weather conditions in past years. The results will help you decide how hot, cold, wet, or windy it might be!

Date:

Astronomy

Aug. 26, 2014 Rise Set
Actual Time 6:15 AM CDT 7:33 PM CDT
Civil Twilight 5:47 AM CDT 8:00 PM CDT
Nautical Twilight 5:14 AM CDT 8:34 PM CDT
Astronomical Twilight 4:39 AM CDT 9:09 PM CDT
Moon 7:15 AM CDT (8/26) 7:54 PM CDT (8/26)
Length of Visible Light 14h 13m
Length of Day
13h 17m
New Moon, 1% of the Moon is Illuminated
Aug 26
New Moon
Sep 2
First Quarter
Sep 8
Full
Sep 15
Last Quarter
Sep 24
New

Hourly Weather History & Observations

Time (CDT) Temp. Heat Index Dew Point Humidity Pressure Visibility Wind Dir Wind Speed Gust Speed Precip Events Conditions
12:53 AM 71.1 °F - 68.0 °F 90% 30.03 in 10.0 mi SSW 5.8 mph - N/A   Clear
1:53 AM 71.1 °F - 68.0 °F 90% 30.02 in 10.0 mi SSW 6.9 mph - N/A   Clear
2:53 AM 71.1 °F - 66.9 °F 87% 30.02 in 10.0 mi South 3.5 mph - N/A   Clear
4:53 AM 68.0 °F - 66.0 °F 93% 30.04 in 7.0 mi SSE 3.5 mph - N/A   Clear
5:53 AM 69.1 °F - 66.9 °F 93% 30.07 in 8.0 mi Calm Calm - N/A   Clear
6:53 AM 69.1 °F - 66.9 °F 93% 30.09 in 7.0 mi Calm Calm - N/A   Clear
7:53 AM 73.0 °F - 69.1 °F 87% 30.11 in 10.0 mi SSW 3.5 mph - N/A   Clear
8:53 AM 78.1 °F - 72.0 °F 81% 30.11 in 9.0 mi South 5.8 mph - N/A   Clear
10:53 AM 84.0 °F 91.9 °F 75.0 °F 74% 30.11 in 8.0 mi Calm Calm - N/A   Clear
11:53 AM 87.1 °F 97.3 °F 75.9 °F 69% 30.09 in 10.0 mi Variable 4.6 mph - N/A   Clear
12:53 PM 88.0 °F 97.5 °F 75.0 °F 65% 30.09 in 10.0 mi South 4.6 mph - N/A   Clear
1:53 PM 89.1 °F 99.1 °F 75.0 °F 63% 30.06 in 10.0 mi South 5.8 mph - N/A   Clear
2:53 PM 90.0 °F 100.2 °F 75.0 °F 61% 30.05 in 10.0 mi SSW 4.6 mph - N/A   Scattered Clouds
3:49 PM 89.6 °F 99.8 °F 75.2 °F 62% 30.06 in 10.0 mi South 3.5 mph - 0.00 in Thunderstorm Scattered Clouds
4:12 PM 88.0 °F 97.5 °F 75.0 °F 65% 30.06 in 5.0 mi NNE 3.5 mph - 0.02 in Rain , Thunderstorm Light Thunderstorms and Rain
4:43 PM 79.0 °F - 66.0 °F 64% 30.07 in 1.8 mi West 12.7 mph 35.7 mph 0.12 in Rain , Thunderstorm Heavy Thunderstorms and Rain
4:53 PM 78.1 °F - 64.0 °F 62% 30.05 in 2.0 mi West 6.9 mph - 0.17 in Rain , Thunderstorm Heavy Thunderstorms and Rain
4:56 PM 79.0 °F - 64.9 °F 62% 30.06 in 3.0 mi Variable 3.5 mph - 0.01 in Rain , Thunderstorm Rain
5:06 PM 80.1 °F 82.1 °F 66.0 °F 62% 30.07 in 10.0 mi Calm Calm - 0.01 in Rain , Thunderstorm Light Thunderstorms and Rain
5:21 PM 77.0 °F - 71.1 °F 82% 30.07 in 10.0 mi WSW 8.1 mph - 0.01 in Rain , Thunderstorm Light Rain
5:53 PM 77.0 °F - 69.1 °F 76% 30.07 in 10.0 mi SE 8.1 mph - 0.01 in Thunderstorm Partly Cloudy
6:12 PM 75.9 °F - 70.0 °F 82% 30.07 in 10.0 mi ESE 4.6 mph - N/A   Partly Cloudy
6:53 PM 75.9 °F - 70.0 °F 82% 30.04 in 10.0 mi South 9.2 mph - N/A   Clear
7:53 PM 75.0 °F - 70.0 °F 84% 30.03 in 10.0 mi South 5.8 mph - N/A   Clear
8:53 PM 75.0 °F - 69.1 °F 82% 30.06 in 10.0 mi South 4.6 mph - N/A   Clear
9:53 PM 75.0 °F - 69.1 °F 82% 30.08 in 10.0 mi West 5.8 mph - N/A   Clear
10:30 PM 75.0 °F - 66.0 °F 73% 30.09 in 10.0 mi Calm Calm - N/A Thunderstorm Clear
10:45 PM 75.0 °F - 66.9 °F 76% 30.09 in 10.0 mi SSW 5.8 mph - N/A   Clear
10:53 PM 73.9 °F - 66.9 °F 79% 30.07 in 10.0 mi Calm Calm - N/A   Clear
11:53 PM 75.0 °F - 68.0 °F 79% 30.06 in 10.0 mi WSW 5.8 mph - N/A   Clear